Terminal Aerodrome Forecast
Issued by NWS Hastings, NE

Home | Current Version | Previous Version | Text Only | Print | Product List | Glossary On
Versions: 1 2 3 4 5 6 7 8 9 10 11 12 13 14 15 16 17 18 19 20 21 22 23 24 25 26 27 28 29 30 31 32 33 34 35 36 37 38 39 40 41 42 43
000
FTUS43 KGID 130523
TAFGRI
TAF
KGRI 130523Z 1306/1406 10008KT P6SM OVC070
     FM131100 13009KT P6SM OVC040
     FM131300 13010KT P6SM OVC025
     FM131600 15012KT P6SM OVC035
     FM132200 16013KT P6SM OVC050=

USA.gov is the U.S. government's official web portal to all federal, state and local government web resources and services.